Regional Weather Roundup
Issued by NWS

Home | Current Version | Previous Version | Text Only | Print | Product List | Glossary On
Versions: 1 2 3 4 5 6 7 8 9 10 11 12 13 14 15 16 17 18 19 20 21 22 23 24 25 26 27 28
000
ASUS46 KPQR 031110
RWROR

OREGON REGIONAL WEATHER ROUNDUP
NATIONAL WEATHER SERVICE PORTLAND OR
400 AM PDT TUE MAY 03 2016

NOTE: "FAIR" INDICATES FEW OR NO CLOUDS BELOW 12,000 FEET WITH
NO SIGNIFICANT WEATHER AND/OR OBSTRUCTIONS TO VISIBILITY.

ORZ001>013-031200-
NORTHWEST OREGON


CITY           SKY/WX    TMP DP  RH WIND       PRES   REMARKS
ASTORIA        CLOUDY    55  52  89 SW7       30.04R FOG
NEWPORT        CLOUDY    54  52  94 SE3       30.08S
PORTLAND       CLOUDY    62  47  57 CALM      30.02R
VANCOUVER WA   CLOUDY    59  48  67 CALM      30.01R
SCAPPOOSE      CLOUDY    55  50  83 CALM      30.02R
HILLSBORO      CLOUDY    58  48  69 NE6       30.00F
AURORA         CLOUDY    54  49  83 S3        30.03R
MCMINNVILLE    CLOUDY    54  49  83 CALM      30.02R
SALEM          MOCLDY    55  48  77 CALM      30.02R
CORVALLIS        N/A     52  48  87 NW6       30.05S
EUGENE         PTCLDY    50  47  89 SW6       30.05R
$$

ORZ021-028-031200-
SOUTHWEST OREGON


CITY           SKY/WX    TMP DP  RH WIND       PRES   REMARKS
NORTH BEND     CLOUDY    55  52  88 CALM      30.07S
ROSEBURG       PTCLDY    54  49  83 CALM      30.03S
SEXTON SUMMIT  CLEAR     51  34  52 SE8       30.06S
MEDFORD        CLEAR     53  44  71 CALM      30.03S
$$

ORZ014>016-041-031200-
COLUMBIA GORGE


CITY           SKY/WX    TMP DP  RH WIND       PRES   REMARKS
TROUTDALE      CLOUDY    57  49  74 CALM      30.02R
THE DALLES     PTCLDY    66  41  40 NW10      29.94R
$$

ORZ029>031-041-044-049-050-061>064-502-503-505>511-031200-
EASTERN OREGON


CITY           SKY/WX    TMP DP  RH WIND       PRES   REMARKS
REDMOND        PTCLDY    51  34  52 SE6       30.04S
BEND           MOCLDY    52  36  54 CALM      30.05S
PRINEVILLE     CLOUDY    46  34  61 CALM      30.06S
KLAMATH FALLS  MOCLDY    48  40  73 SE5       30.10S
LAKEVIEW       PTCLDY    34  28  80 NW7       30.16S WCI  28
HERMISTON      CLEAR     52  37  56 E6        29.94R
PENDLETON      CLEAR     63  26  24 S7        29.98R
JOHN DAY       CLEAR     49  28  42 SE8       30.11R
MEACHAM        CLEAR     35  29  78 CALM      30.10S
LA GRANDE      CLEAR     39  25  56 CALM      30.10R
BAKER CITY     CLEAR     33  29  85 CALM      30.14R
BURNS          CLEAR     35  27  72 CALM      30.13R
ROME             N/A     41  31  67 NE5       30.12R
ONTARIO        CLEAR     43  35  73 W6        30.12R
$$




USA.gov is the U.S. government's official web portal to all federal, state and local government web resources and services.